Regional Weather Roundup
Issued by NWS Northern Indiana

Home | Current Version | Previous Version | Text Only | Print | Product List | Glossary Off
Versions: 1 2 3 4 5 6 7 8 9 10 11 12 13 14 15 16 17 18 19 20 21 22 23 24 25 26 27 28 29 30 31 32 33 34 35 36 37 38 39 40 41 42 43 44 45 46 47 48 49 50

000
ASUS43 KIWX 020710
RWRIWX

KIWX WEATHER ROUNDUP
NATIONAL WEATHER SERVICE NORTHERN INDIANA
300 AM EDT THU JUL 02 2015

NOTE: "FAIR" INDICATES FEW OR NO CLOUDS BELOW 12,000 FEET WITH NO
SIGNIFICANT WEATHER AND/OR OBSTRUCTIONS TO VISIBILITY.

* THESE STATIONS ARE NOT UNDER NWS QUALITY CONTROL. THEY ALSO MAY NOT
  REPORT WEATHER SUCH AS PRECIPITATION OR FOG.

INZ001>027-020800-
NORTHERN INDIANA

CITY           SKY/WX    TMP DP  RH WIND       PRES   REMARKS
VALPARAISO     MOCLDY    57  54  89 N5        29.98S
SOUTH BEND     MOCLDY    56  53  90 N3        29.98F
GOSHEN         MOCLDY    56  52  86 N5        29.97S
ANGOLA*          N/A     55  45  67 CALM      29.96F
FORT WAYNE     CLOUDY    59  55  87 N7        29.96F
PERU/GRISSOM   MOCLDY    58  54  86 N7        29.95S

$$
INZ028>050-020800-
CENTRAL INDIANA

CITY           SKY/WX    TMP DP  RH WIND       PRES   REMARKS
LAFAYETTE      MOCLDY    59  52  77 NE9       29.95S
KOKOMO*        CLOUDY    59  54  82 NE8       29.95S
MUNCIE*        CLOUDY    63  55  75 NE7       29.95R
INDIANAPOLIS   CLOUDY    64  55  72 NE12      29.90F

$$
MIZ043>046-050>051-056>058-064>065-071>073-077>080-020800-
SOUTHWEST LOWER MICHIGAN

CITY           SKY/WX    TMP DP  RH WIND       PRES   REMARKS
BATTLE CREEK   CLEAR     54  51  90 N5        29.98S
BENTON HARBOR  PTCLDY    50  48  93 CALM      29.98S
COLDWATER*     PTCLDY    52  52  99 CALM      29.97S FOG
HILLSDALE*     FOG       54  54 100 CALM      29.97S VSB 1/4
HOLLAND        CLEAR     54  52  93 CALM      29.99S
GRAND RAPIDS   CLEAR     53  52  96 NE3       29.99S
KALAMAZOO      CLEAR     54  51  90 N3        29.98S
STURGIS*       PTCLDY    54  54 100 CALM      29.97S
THREE RIVERS*  FAIR      54  52  92 CALM      29.98R

$$
OHZ001>008-015>018-024>025-020800-
NORTHWEST OHIO

CITY           SKY/WX    TMP DP  RH WIND       PRES   REMARKS
DEFIANCE       PTCLDY    60  55  83 N3        29.95F
FINDLAY        PTCLDY    64  60  87 NE5       29.93F
TOLEDO EXPRESS MOCLDY    60  54  80 NE5       29.95S
TOLEDO METCALF CLOUDY    65  59  81 NE5       29.96S
LIMA           CLEAR     61  56  83 N3        29.94F

$$
AND FOR LAKE MICHIGAN COASTAL AND OPEN LAKE BUOY OBSERVATIONS

STATION/POSITION TEMP    WIND        PRES    VSBY  WAVE
                 AIR SEA DIR/SP/G                  HT/PER
                 (F)     (DEG/KT/KT) (MB)    (MI)  (FT/S)
CALUMET HARBOR    56     360/  7/ 10   N/A
MICHIGAN CITY     59      20/ 11/ 12   N/A
SAINT JOSEPH      55      20/  2/  6   N/A
4 MI NW BRIDGMAN  58 63                N/A           3/ 5
MICHIGAN CITY     60 64   60/ 10/ 14   N/A           3/ 5

$$
&&



USA.gov is the U.S. government's official web portal to all federal, state and local government web resources and services.